This is the latest recevied weather packets stored in our database for station/object N6DZK. If no packets are shown the sender has not sent any weather packets the latest 10 day(s).
| Time | Temp. | Humidity | Pressure | Rain* | Wind** | Luminosity | Snow |
|---|---|---|---|---|---|---|---|
| 1777338533 | 16.11° C | 59% | 1017 hPa | 0 mm | - | 48 W/m² | - |
| 1777338230 | 16.11° C | 58% | 1017 hPa | 0 mm | - | 56 W/m² | - |
| 1777337925 | 16.11° C | 58% | 1017 hPa | 0 mm | - | 72 W/m² | - |
| 1777337623 | 16.11° C | 58% | 1016.9 hPa | 0 mm | - | 65 W/m² | - |
| 1777337320 | 16.11° C | 58% | 1016.7 hPa | 0 mm | - | 54 W/m² | - |
| 1777337017 | 16.67° C | 58% | 1016.9 hPa | 0 mm | - | 59 W/m² | - |
| 1777336716 | 16.67° C | 56% | 1016.6 hPa | 0 mm | - | 65 W/m² | - |
| 1777336414 | 16.67° C | 56% | 1016.9 hPa | 0 mm | - | 73 W/m² | - |
| 1777336111 | 17.22° C | 56% | 1016.9 hPa | 0 mm | - | 83 W/m² | - |
| 1777335807 | 17.22° C | 55% | 1016.6 hPa | 0 mm | - | 100 W/m² | - |
| 1777335505 | 17.22° C | 55% | 1016.7 hPa | 0 mm | - | 102 W/m² | - |
| 1777335201 | 17.78° C | 56% | 1016.6 hPa | 0 mm | - | 94 W/m² | - |
| 1777334899 | 17.78° C | 54% | 1016.5 hPa | 0 mm | - | 81 W/m² | - |
| 1777334597 | 18.33° C | 55% | 1016.4 hPa | 0 mm | - | 100 W/m² | - |
| 1777334294 | 17.78° C | 56% | 1016.7 hPa | 0 mm | - | 494 W/m² | - |
| 1777333989 | 17.22° C | 58% | 1016.4 hPa | 0 mm | - | 211 W/m² | - |
| 1777333685 | 17.22° C | 56% | 1016.5 hPa | 0 mm | - | 109 W/m² | - |
| 1777333381 | 17.78° C | 55% | 1016.4 hPa | 0 mm | - | 78 W/m² | - |
| 1777333080 | 17.78° C | 54% | 1016.4 hPa | 0 mm | - | 98 W/m² | - |
| 1777332777 | 17.78° C | 56% | 1016.5 hPa | 0 mm | - | 117 W/m² | - |
| 1777332474 | 17.78° C | 56% | 1016.3 hPa | 0 mm | - | 130 W/m² | - |
| 1777332170 | 17.78° C | 54% | 1016.5 hPa | 0 mm | - | 142 W/m² | - |
| 1777331868 | 17.78° C | 53% | 1016.4 hPa | 0 mm | - | 168 W/m² | - |
| 1777331565 | 18.89° C | 52% | 1016.6 hPa | 0 mm | - | 154 W/m² | - |
| 1777331263 | 19.44° C | 50% | 1016.3 hPa | 0 mm | - | 160 W/m² | - |
* Rain latest hour (hover to see other rain measurements)
** Current wind speed in m/s (hover to see current wind gust speed)